Year,Month,Day,Hour,Minute,Value (Times are PST for windgust in km/hr)
2015,12,06,00,00,12.90
2015,12,06,00,01,9.60
2015,12,06,00,02,9.60
2015,12,06,00,03,4.80
2015,12,06,00,04,8.10
2015,12,06,00,05,3.20
2015,12,06,00,06,8.10
2015,12,06,00,07,17.70
2015,12,06,00,08,14.50
2015,12,06,00,09,8.10
2015,12,06,00,10,9.60
2015,12,06,00,11,9.60
2015,12,06,00,12,9.60
2015,12,06,00,13,19.30
2015,12,06,00,14,9.60
2015,12,06,00,15,12.90
2015,12,06,00,16,9.60
2015,12,06,00,17,8.10
2015,12,06,00,18,4.80
2015,12,06,00,19,9.60
2015,12,06,00,20,8.10
2015,12,06,00,21,1.60
2015,12,06,00,22,6.40
2015,12,06,00,23,6.40
2015,12,06,00,24,8.10
2015,12,06,00,25,6.40
2015,12,06,00,26,30.60
2015,12,06,00,27,27.40
2015,12,06,00,28,12.90
2015,12,06,00,29,12.90
2015,12,06,00,30,12.90
2015,12,06,00,31,11.30
2015,12,06,00,32,16.10
2015,12,06,00,33,11.30
2015,12,06,00,34,9.60
2015,12,06,00,35,6.40
2015,12,06,00,36,9.60
2015,12,06,00,37,9.60
2015,12,06,00,38,16.10
2015,12,06,00,39,24.20
2015,12,06,00,40,17.70
2015,12,06,00,41,24.20
2015,12,06,00,42,22.50
2015,12,06,00,43,11.30
2015,12,06,00,44,14.50
2015,12,06,00,45,19.30
2015,12,06,00,46,20.90
2015,12,06,00,47,19.30
2015,12,06,00,48,19.30
2015,12,06,00,49,17.70
2015,12,06,00,50,20.90
2015,12,06,00,51,14.50
2015,12,06,00,52,17.70
2015,12,06,00,53,17.70
2015,12,06,00,54,16.10
2015,12,06,00,55,14.50
2015,12,06,00,56,16.10
2015,12,06,00,57,12.90
2015,12,06,00,58,14.50
2015,12,06,00,59,17.70
2015,12,06,01,00,16.10
2015,12,06,01,01,16.10
2015,12,06,01,02,16.10
2015,12,06,01,03,16.10
2015,12,06,01,04,17.70
2015,12,06,01,05,27.40
2015,12,06,01,06,16.10
2015,12,06,01,07,12.90
2015,12,06,01,08,19.30
2015,12,06,01,09,19.30
2015,12,06,01,10,27.40
2015,12,06,01,11,27.40
2015,12,06,01,12,24.20
2015,12,06,01,13,17.70
2015,12,06,01,14,12.90
2015,12,06,01,15,14.50
2015,12,06,01,16,11.30
2015,12,06,01,17,16.10
2015,12,06,01,18,17.70
2015,12,06,01,19,27.40
2015,12,06,01,20,30.60
2015,12,06,01,21,20.90
2015,12,06,01,22,25.70
2015,12,06,01,23,22.50
2015,12,06,01,24,19.30
2015,12,06,01,25,27.40
2015,12,06,01,26,20.90
2015,12,06,01,27,30.60
2015,12,06,01,28,30.60
2015,12,06,01,29,17.70
2015,12,06,01,30,16.10
2015,12,06,01,31,19.30
2015,12,06,01,32,16.10
2015,12,06,01,33,17.70
2015,12,06,01,34,17.70
2015,12,06,01,35,29.00
2015,12,06,01,36,19.30
2015,12,06,01,37,22.50
2015,12,06,01,38,17.70
2015,12,06,01,39,24.20
2015,12,06,01,40,27.40
2015,12,06,01,41,14.50
2015,12,06,01,42,12.90
2015,12,06,01,43,24.20
2015,12,06,01,44,20.90
2015,12,06,01,45,22.50
2015,12,06,01,46,29.00
2015,12,06,01,47,27.40
2015,12,06,01,48,17.70
2015,12,06,01,49,22.50
2015,12,06,01,50,16.10
2015,12,06,01,51,20.90
2015,12,06,01,52,29.00
2015,12,06,01,53,30.60
2015,12,06,01,54,24.20
2015,12,06,01,55,17.70
2015,12,06,01,56,25.70
2015,12,06,01,57,17.70
2015,12,06,01,58,27.40
2015,12,06,01,59,29.00
2015,12,06,02,00,25.70
2015,12,06,02,01,24.20
2015,12,06,02,02,14.50
2015,12,06,02,03,14.50
2015,12,06,02,04,17.70
2015,12,06,02,05,29.00
2015,12,06,02,06,22.50
2015,12,06,02,07,19.30
2015,12,06,02,08,20.90
2015,12,06,02,09,29.00
2015,12,06,02,10,27.40
2015,12,06,02,11,25.70
2015,12,06,02,12,22.50
2015,12,06,02,13,38.60
2015,12,06,02,14,33.80
2015,12,06,02,15,24.20
2015,12,06,02,16,24.20
2015,12,06,02,17,19.30
2015,12,06,02,18,14.50
2015,12,06,02,19,19.30
2015,12,06,02,20,22.50
2015,12,06,02,21,17.70
2015,12,06,02,22,17.70
2015,12,06,02,23,19.30
2015,12,06,02,24,20.90
2015,12,06,02,25,16.10
2015,12,06,02,26,16.10
2015,12,06,02,27,29.00
2015,12,06,02,28,20.90
2015,12,06,02,29,17.70
2015,12,06,02,30,24.20
2015,12,06,02,31,22.50
2015,12,06,02,32,32.20
2015,12,06,02,33,14.50
2015,12,06,02,34,19.30
2015,12,06,02,35,19.30
2015,12,06,02,36,12.90
2015,12,06,02,37,19.30
2015,12,06,02,38,16.10
2015,12,06,02,39,20.90
2015,12,06,02,40,17.70
2015,12,06,02,41,20.90
2015,12,06,02,42,17.70
2015,12,06,02,43,19.30
2015,12,06,02,44,25.70
2015,12,06,02,45,17.70
2015,12,06,02,46,11.30
2015,12,06,02,47,19.30
2015,12,06,02,48,16.10
2015,12,06,02,49,19.30
2015,12,06,02,50,22.50
2015,12,06,02,51,29.00
2015,12,06,02,52,16.10
2015,12,06,02,53,19.30
2015,12,06,02,54,24.20
2015,12,06,02,55,17.70
2015,12,06,02,56,20.90
2015,12,06,02,57,17.70
2015,12,06,02,58,25.70
2015,12,06,02,59,29.00
2015,12,06,03,00,25.70
2015,12,06,03,01,16.10
2015,12,06,03,02,19.30
2015,12,06,03,03,25.70
2015,12,06,03,04,29.00
2015,12,06,03,05,17.70
2015,12,06,03,06,11.30
2015,12,06,03,07,22.50
2015,12,06,03,08,27.40
2015,12,06,03,09,27.40
2015,12,06,03,10,19.30
2015,12,06,03,11,20.90
2015,12,06,03,12,22.50
2015,12,06,03,13,25.70
2015,12,06,03,14,35.40
2015,12,06,03,15,25.70
2015,12,06,03,16,27.40
2015,12,06,03,17,12.90
2015,12,06,03,18,17.70
2015,12,06,03,19,24.20
2015,12,06,03,20,25.70
2015,12,06,03,21,17.70
2015,12,06,03,22,22.50
2015,12,06,03,23,19.30
2015,12,06,03,24,24.20
2015,12,06,03,25,19.30
2015,12,06,03,26,19.30
2015,12,06,03,27,30.60
2015,12,06,03,28,17.70
2015,12,06,03,29,24.20
2015,12,06,03,30,11.30
2015,12,06,03,31,9.60
2015,12,06,03,32,16.10
2015,12,06,03,33,20.90
2015,12,06,03,34,16.10
2015,12,06,03,35,16.10
2015,12,06,03,36,22.50
2015,12,06,03,37,17.70
2015,12,06,03,38,19.30
2015,12,06,03,39,14.50
2015,12,06,03,40,22.50
2015,12,06,03,41,25.70
2015,12,06,03,42,14.50
2015,12,06,03,43,17.70
2015,12,06,03,44,17.70
2015,12,06,03,45,24.20
2015,12,06,03,46,14.50
2015,12,06,03,47,14.50
2015,12,06,03,48,17.70
2015,12,06,03,49,16.10
2015,12,06,03,50,17.70
2015,12,06,03,51,16.10
2015,12,06,03,52,32.20
2015,12,06,03,53,17.70
2015,12,06,03,54,24.20
2015,12,06,03,55,19.30
2015,12,06,03,56,22.50
2015,12,06,03,57,25.70
2015,12,06,03,58,29.00
2015,12,06,03,59,20.90
2015,12,06,04,00,25.70
2015,12,06,04,01,24.20
2015,12,06,04,02,24.20
2015,12,06,04,03,22.50
2015,12,06,04,04,25.70
2015,12,06,04,05,24.20
2015,12,06,04,06,19.30
2015,12,06,04,07,19.30
2015,12,06,04,08,30.60
2015,12,06,04,09,25.70
2015,12,06,04,10,25.70
2015,12,06,04,11,22.50
2015,12,06,04,12,25.70
2015,12,06,04,13,25.70
2015,12,06,04,14,16.10
2015,12,06,04,15,16.10
2015,12,06,04,16,29.00
2015,12,06,04,17,32.20
2015,12,06,04,18,19.30
2015,12,06,04,19,11.30
2015,12,06,04,20,17.70
2015,12,06,04,21,17.70
2015,12,06,04,22,19.30
2015,12,06,04,23,30.60
2015,12,06,04,24,27.40
2015,12,06,04,25,20.90
2015,12,06,04,26,25.70
2015,12,06,04,27,30.60
2015,12,06,04,28,27.40
2015,12,06,04,29,27.40
2015,12,06,04,30,17.70
2015,12,06,04,31,19.30
2015,12,06,04,32,20.90
2015,12,06,04,33,20.90
2015,12,06,04,34,22.50
2015,12,06,04,35,24.20
2015,12,06,04,36,24.20
2015,12,06,04,37,22.50
2015,12,06,04,38,32.20
2015,12,06,04,39,30.60
2015,12,06,04,40,17.70
2015,12,06,04,41,25.70
2015,12,06,04,42,33.80
2015,12,06,04,43,32.20
2015,12,06,04,44,25.70
2015,12,06,04,45,29.00
2015,12,06,04,46,20.90
2015,12,06,04,47,16.10
2015,12,06,04,48,12.90
2015,12,06,04,49,20.90
2015,12,06,04,50,22.50
2015,12,06,04,51,20.90
2015,12,06,04,52,20.90
2015,12,06,04,53,30.60
2015,12,06,04,54,17.70
2015,12,06,04,55,11.30
2015,12,06,04,56,19.30
2015,12,06,04,57,20.90
2015,12,06,04,58,25.70
2015,12,06,04,59,24.20
2015,12,06,05,00,32.20
2015,12,06,05,01,35.40
2015,12,06,05,02,30.60
2015,12,06,05,03,19.30
2015,12,06,05,04,12.90
2015,12,06,05,05,27.40
2015,12,06,05,06,29.00
2015,12,06,05,07,30.60
2015,12,06,05,08,25.70
2015,12,06,05,09,33.80
2015,12,06,05,10,22.50
2015,12,06,05,11,25.70
2015,12,06,05,12,29.00
2015,12,06,05,13,25.70
2015,12,06,05,14,32.20
2015,12,06,05,15,40.20
2015,12,06,05,16,33.80
2015,12,06,05,17,19.30
2015,12,06,05,18,22.50
2015,12,06,05,19,24.20
2015,12,06,05,20,17.70
2015,12,06,05,21,20.90
2015,12,06,05,22,30.60
2015,12,06,05,23,30.60
2015,12,06,05,24,17.70
2015,12,06,05,25,17.70
2015,12,06,05,26,22.50
2015,12,06,05,27,11.30
2015,12,06,05,28,25.70
2015,12,06,05,29,19.30
2015,12,06,05,30,22.50
2015,12,06,05,31,12.90
2015,12,06,05,32,14.50
2015,12,06,05,33,16.10
2015,12,06,05,34,24.20
2015,12,06,05,35,19.30
2015,12,06,05,36,24.20
2015,12,06,05,37,24.20
2015,12,06,05,38,24.20
2015,12,06,05,39,24.20
2015,12,06,05,40,12.90
2015,12,06,05,41,14.50
2015,12,06,05,42,32.20
2015,12,06,05,43,22.50
2015,12,06,05,44,27.40
2015,12,06,05,45,29.00
2015,12,06,05,46,29.00
2015,12,06,05,47,25.70
2015,12,06,05,48,29.00
2015,12,06,05,49,33.80
2015,12,06,05,50,25.70
2015,12,06,05,51,41.80
2015,12,06,05,52,45.10
2015,12,06,05,53,35.40
2015,12,06,05,54,32.20
2015,12,06,05,55,30.60
2015,12,06,05,56,29.00
2015,12,06,05,57,30.60
2015,12,06,05,58,30.60
2015,12,06,05,59,24.20
2015,12,06,06,00,16.10
2015,12,06,06,01,24.20
2015,12,06,06,02,22.50
2015,12,06,06,03,38.60
2015,12,06,06,04,27.40
2015,12,06,06,05,27.40
2015,12,06,06,06,20.90
2015,12,06,06,07,30.60
2015,12,06,06,08,37.00
2015,12,06,06,09,24.20
2015,12,06,06,10,25.70
2015,12,06,06,11,33.80
2015,12,06,06,12,32.20
2015,12,06,06,13,43.50
2015,12,06,06,14,38.60
2015,12,06,06,15,30.60
2015,12,06,06,16,30.60
2015,12,06,06,17,30.60
2015,12,06,06,18,30.60
2015,12,06,06,19,41.80
2015,12,06,06,20,24.20
2015,12,06,06,21,25.70
2015,12,06,06,22,22.50
2015,12,06,06,23,24.20
2015,12,06,06,24,20.90
2015,12,06,06,25,38.60
2015,12,06,06,26,30.60
2015,12,06,06,27,35.40
2015,12,06,06,28,29.00
2015,12,06,06,29,27.40
2015,12,06,06,30,29.00
2015,12,06,06,31,25.70
2015,12,06,06,32,22.50
2015,12,06,06,33,32.20
2015,12,06,06,34,33.80
2015,12,06,06,35,33.80
2015,12,06,06,36,25.70
2015,12,06,06,37,24.20
2015,12,06,06,38,19.30
2015,12,06,06,39,20.90
2015,12,06,06,40,24.20
2015,12,06,06,41,43.50
2015,12,06,06,42,32.20
2015,12,06,06,43,20.90
2015,12,06,06,44,24.20
2015,12,06,06,45,30.60
2015,12,06,06,46,25.70
2015,12,06,06,47,43.50
2015,12,06,06,48,27.40
2015,12,06,06,49,24.20
2015,12,06,06,50,41.80
2015,12,06,06,51,38.60
2015,12,06,06,52,35.40
2015,12,06,06,53,22.50
2015,12,06,06,54,32.20
2015,12,06,06,55,35.40
2015,12,06,06,56,37.00
2015,12,06,06,57,24.20
2015,12,06,06,58,33.80
2015,12,06,06,59,27.40
2015,12,06,07,00,29.00
2015,12,06,07,01,41.80
2015,12,06,07,02,25.70
2015,12,06,07,03,27.40
2015,12,06,07,04,20.90
2015,12,06,07,05,29.00
2015,12,06,07,06,30.60
2015,12,06,07,07,19.30
2015,12,06,07,08,20.90
2015,12,06,07,09,38.60
2015,12,06,07,10,17.70
2015,12,06,07,11,25.70
2015,12,06,07,12,33.80
2015,12,06,07,13,38.60
2015,12,06,07,14,32.20
2015,12,06,07,15,43.50
2015,12,06,07,16,30.60
2015,12,06,07,17,22.50
2015,12,06,07,18,12.90
2015,12,06,07,19,20.90
2015,12,06,07,20,29.00
2015,12,06,07,21,16.10
2015,12,06,07,22,22.50
2015,12,06,07,23,22.50
2015,12,06,07,24,19.30
2015,12,06,07,25,29.00
2015,12,06,07,26,25.70
2015,12,06,07,27,22.50
2015,12,06,07,28,17.70
2015,12,06,07,29,32.20
2015,12,06,07,30,32.20
2015,12,06,07,31,22.50
2015,12,06,07,32,22.50
2015,12,06,07,33,25.70
2015,12,06,07,34,20.90
2015,12,06,07,35,20.90
2015,12,06,07,36,30.60
2015,12,06,07,37,30.60
2015,12,06,07,38,11.30
2015,12,06,07,39,20.90
2015,12,06,07,40,20.90
2015,12,06,07,41,24.20
2015,12,06,07,42,16.10
2015,12,06,07,43,16.10
2015,12,06,07,44,27.40
2015,12,06,07,45,20.90
2015,12,06,07,46,24.20
2015,12,06,07,47,22.50
2015,12,06,07,48,24.20
2015,12,06,07,49,20.90
2015,12,06,07,50,24.20
2015,12,06,07,51,29.00
2015,12,06,07,52,14.50
2015,12,06,07,53,22.50
2015,12,06,07,54,27.40
2015,12,06,07,55,30.60
2015,12,06,07,56,30.60
2015,12,06,07,57,24.20
2015,12,06,07,58,25.70
2015,12,06,07,59,22.50
2015,12,06,08,00,27.40
2015,12,06,08,01,19.30
2015,12,06,08,02,17.70
2015,12,06,08,03,22.50
2015,12,06,08,04,29.00
2015,12,06,08,05,19.30
2015,12,06,08,06,27.40
2015,12,06,08,07,24.20
2015,12,06,08,08,27.40
2015,12,06,08,09,25.70
2015,12,06,08,10,29.00
2015,12,06,08,11,35.40
2015,12,06,08,12,20.90
2015,12,06,08,13,27.40
2015,12,06,08,14,24.20
2015,12,06,08,15,30.60
2015,12,06,08,16,30.60
2015,12,06,08,17,27.40
2015,12,06,08,18,32.20
2015,12,06,08,19,32.20
2015,12,06,08,20,32.20
2015,12,06,08,21,32.20
2015,12,06,08,22,27.40
2015,12,06,08,23,19.30
2015,12,06,08,24,17.70
2015,12,06,08,25,16.10
2015,12,06,08,26,27.40
2015,12,06,08,27,35.40
2015,12,06,08,28,29.00
2015,12,06,08,29,41.80
2015,12,06,08,30,25.70
2015,12,06,08,31,38.60
2015,12,06,08,32,30.60
2015,12,06,08,33,30.60
2015,12,06,08,34,29.00
2015,12,06,08,35,38.60
2015,12,06,08,36,29.00
2015,12,06,08,37,37.00
2015,12,06,08,38,45.10
2015,12,06,08,39,29.00
2015,12,06,08,40,35.40
2015,12,06,08,41,30.60
2015,12,06,08,42,25.70
2015,12,06,08,43,19.30
2015,12,06,08,44,19.30
2015,12,06,08,45,27.40
2015,12,06,08,46,33.80
2015,12,06,08,47,32.20
2015,12,06,08,48,25.70
2015,12,06,08,49,19.30
2015,12,06,08,50,25.70
2015,12,06,08,51,25.70
2015,12,06,08,52,35.40
2015,12,06,08,53,33.80
2015,12,06,08,54,33.80
2015,12,06,08,55,27.40
2015,12,06,08,56,38.60
2015,12,06,08,57,33.80
2015,12,06,08,58,46.70
2015,12,06,08,59,40.20
2015,12,06,09,00,29.00
2015,12,06,09,01,29.00
2015,12,06,09,02,30.60
2015,12,06,09,03,33.80
2015,12,06,09,04,30.60
2015,12,06,09,05,32.20
2015,12,06,09,06,46.70
2015,12,06,09,07,40.20
2015,12,06,09,08,41.80
2015,12,06,09,09,37.00
2015,12,06,09,10,30.60
2015,12,06,09,11,25.70
2015,12,06,09,12,24.20
2015,12,06,09,13,32.20
2015,12,06,09,14,41.80
2015,12,06,09,15,33.80
2015,12,06,09,16,54.70
2015,12,06,09,17,48.30
2015,12,06,09,18,37.00
2015,12,06,09,19,37.00
2015,12,06,09,20,37.00
2015,12,06,09,21,40.20
2015,12,06,09,22,40.20
2015,12,06,09,23,27.40
2015,12,06,09,24,35.40
2015,12,06,09,25,38.60
2015,12,06,09,26,51.50
2015,12,06,09,27,51.50
2015,12,06,09,28,43.50
2015,12,06,09,29,37.00
2015,12,06,09,30,45.10
2015,12,06,09,31,25.70
2015,12,06,09,32,59.50
2015,12,06,09,33,49.90
2015,12,06,09,34,29.00
2015,12,06,09,35,35.40
2015,12,06,09,36,27.40
2015,12,06,09,37,29.00
2015,12,06,09,38,33.80
2015,12,06,09,39,33.80
2015,12,06,09,40,43.50
2015,12,06,09,41,37.00
2015,12,06,09,42,40.20
2015,12,06,09,43,45.10
2015,12,06,09,44,41.80
2015,12,06,09,45,46.70
2015,12,06,09,46,51.50
2015,12,06,09,47,48.30
2015,12,06,09,48,51.50
2015,12,06,09,49,33.80
2015,12,06,09,50,41.80
2015,12,06,09,51,51.50
2015,12,06,09,52,30.60
2015,12,06,09,53,32.20
2015,12,06,09,54,29.00
2015,12,06,09,55,35.40
2015,12,06,09,56,35.40
2015,12,06,09,57,30.60
2015,12,06,09,58,27.40
2015,12,06,09,59,32.20
2015,12,06,10,00,35.40
2015,12,06,10,01,25.70
2015,12,06,10,02,41.80
2015,12,06,10,03,33.80
2015,12,06,10,04,29.00
2015,12,06,10,05,29.00
2015,12,06,10,06,25.70
2015,12,06,10,07,33.80
2015,12,06,10,08,49.90
2015,12,06,10,09,38.60
2015,12,06,10,10,25.70
2015,12,06,10,11,33.80
2015,12,06,10,12,35.40
2015,12,06,10,13,27.40
2015,12,06,10,14,24.20
2015,12,06,10,15,22.50
2015,12,06,10,16,37.00
2015,12,06,10,17,38.60
2015,12,06,10,18,38.60
2015,12,06,10,19,38.60
2015,12,06,10,20,33.80
2015,12,06,10,21,25.70
2015,12,06,10,22,25.70
2015,12,06,10,23,33.80
2015,12,06,10,24,30.60
2015,12,06,10,25,32.20
2015,12,06,10,26,29.00
2015,12,06,10,27,22.50
2015,12,06,10,28,20.90
2015,12,06,10,29,30.60
2015,12,06,10,30,30.60
2015,12,06,10,31,19.30
2015,12,06,10,32,30.60
2015,12,06,10,33,32.20
2015,12,06,10,34,27.40
2015,12,06,10,35,33.80
2015,12,06,10,36,20.90
2015,12,06,10,37,27.40
2015,12,06,10,38,24.20
2015,12,06,10,39,20.90
2015,12,06,10,40,40.20
2015,12,06,10,41,37.00
2015,12,06,10,42,29.00
2015,12,06,10,43,22.50
2015,12,06,10,44,29.00
2015,12,06,10,45,46.70
2015,12,06,10,46,25.70
2015,12,06,10,47,30.60
2015,12,06,10,48,29.00
2015,12,06,10,49,22.50
2015,12,06,10,50,25.70
2015,12,06,10,51,30.60
2015,12,06,10,52,25.70
2015,12,06,10,53,24.20
2015,12,06,10,54,29.00
2015,12,06,10,55,25.70
2015,12,06,10,56,43.50
2015,12,06,10,57,35.40
2015,12,06,10,58,32.20
2015,12,06,10,59,30.60
2015,12,06,11,00,29.00
2015,12,06,11,01,35.40
2015,12,06,11,02,25.70
2015,12,06,11,03,32.20
2015,12,06,11,04,25.70
2015,12,06,11,05,29.00
2015,12,06,11,06,35.40
2015,12,06,11,07,35.40
2015,12,06,11,08,32.20
2015,12,06,11,09,40.20
2015,12,06,11,10,24.20
2015,12,06,11,11,33.80
2015,12,06,11,12,45.10
2015,12,06,11,13,29.00
2015,12,06,11,14,27.40
2015,12,06,11,15,40.20
2015,12,06,11,16,41.80
2015,12,06,11,17,30.60
2015,12,06,11,18,22.50
2015,12,06,11,19,24.20
2015,12,06,11,20,25.70
2015,12,06,11,21,37.00
2015,12,06,11,22,27.40
2015,12,06,11,23,37.00
2015,12,06,11,24,30.60
2015,12,06,11,25,38.60
2015,12,06,11,26,38.60
2015,12,06,11,27,49.90
2015,12,06,11,28,25.70
2015,12,06,11,29,53.10
2015,12,06,11,30,30.60
2015,12,06,11,31,35.40
2015,12,06,11,32,43.50
2015,12,06,11,33,41.80
2015,12,06,11,34,29.00
2015,12,06,11,35,32.20
2015,12,06,11,36,37.00
2015,12,06,11,37,43.50
2015,12,06,11,38,33.80
2015,12,06,11,39,33.80
2015,12,06,11,40,27.40
2015,12,06,11,41,22.50
2015,12,06,11,42,29.00
2015,12,06,11,43,33.80
2015,12,06,11,44,25.70
2015,12,06,11,45,41.80
2015,12,06,11,46,37.00
2015,12,06,11,47,29.00
2015,12,06,11,48,27.40
2015,12,06,11,49,24.20
2015,12,06,11,50,27.40
2015,12,06,11,51,37.00
2015,12,06,11,52,32.20
2015,12,06,11,53,25.70
2015,12,06,11,54,17.70
2015,12,06,11,55,32.20
2015,12,06,11,56,41.80
2015,12,06,11,57,38.60
2015,12,06,11,58,38.60
2015,12,06,11,59,38.60
2015,12,06,12,00,35.40
2015,12,06,12,01,29.00
2015,12,06,12,02,38.60
2015,12,06,12,03,40.20
2015,12,06,12,04,41.80
2015,12,06,12,05,30.60
2015,12,06,12,06,25.70
2015,12,06,12,07,41.80
2015,12,06,12,08,37.00
2015,12,06,12,09,40.20
2015,12,06,12,10,37.00
2015,12,06,12,11,40.20
2015,12,06,12,12,30.60
2015,12,06,12,13,30.60
2015,12,06,12,14,29.00
2015,12,06,12,15,37.00
2015,12,06,12,16,45.10
2015,12,06,12,17,37.00
2015,12,06,12,18,48.30
2015,12,06,12,19,40.20
2015,12,06,12,20,33.80
2015,12,06,12,21,51.50
2015,12,06,12,22,30.60
2015,12,06,12,23,51.50
2015,12,06,12,24,45.10
2015,12,06,12,25,30.60
2015,12,06,12,26,33.80
2015,12,06,12,27,33.80
2015,12,06,12,28,29.00
2015,12,06,12,29,49.90
2015,12,06,12,30,32.20
2015,12,06,12,31,25.70
2015,12,06,12,32,25.70
2015,12,06,12,33,48.30
2015,12,06,12,34,41.80
2015,12,06,12,35,45.10
2015,12,06,12,36,32.20
2015,12,06,12,37,40.20
2015,12,06,12,38,33.80
2015,12,06,12,39,30.60
2015,12,06,12,40,35.40
2015,12,06,12,41,38.60
2015,12,06,12,42,22.50
2015,12,06,12,43,20.90
2015,12,06,12,44,25.70
2015,12,06,12,45,33.80
2015,12,06,12,46,33.80
2015,12,06,12,47,24.20
2015,12,06,12,48,25.70
2015,12,06,12,49,35.40
2015,12,06,12,50,24.20
2015,12,06,12,51,27.40
2015,12,06,12,52,32.20
2015,12,06,12,53,32.20
2015,12,06,12,54,27.40
2015,12,06,12,55,41.80
2015,12,06,12,56,25.70
2015,12,06,12,57,38.60
2015,12,06,12,58,30.60
2015,12,06,12,59,43.50
2015,12,06,13,00,38.60
2015,12,06,13,01,43.50
2015,12,06,13,02,30.60
2015,12,06,13,03,32.20
2015,12,06,13,04,29.00
2015,12,06,13,05,35.40
2015,12,06,13,06,41.80
2015,12,06,13,07,41.80
2015,12,06,13,08,27.40
2015,12,06,13,09,29.00
2015,12,06,13,10,37.00
2015,12,06,13,11,22.50
2015,12,06,13,12,27.40
2015,12,06,13,13,22.50
2015,12,06,13,14,22.50
2015,12,06,13,15,25.70
2015,12,06,13,16,20.90
2015,12,06,13,17,29.00
2015,12,06,13,18,25.70
2015,12,06,13,19,24.20
2015,12,06,13,20,25.70
2015,12,06,13,21,24.20
2015,12,06,13,22,32.20
2015,12,06,13,23,41.80
2015,12,06,13,24,32.20
2015,12,06,13,25,30.60
2015,12,06,13,26,33.80
2015,12,06,13,27,20.90
2015,12,06,13,28,17.70
2015,12,06,13,29,30.60
2015,12,06,13,30,29.00
2015,12,06,13,31,24.20
2015,12,06,13,32,33.80
2015,12,06,13,33,29.00
2015,12,06,13,34,38.60
2015,12,06,13,35,30.60
2015,12,06,13,36,22.50
2015,12,06,13,37,22.50
2015,12,06,13,38,22.50
2015,12,06,13,39,22.50
2015,12,06,13,40,40.20
2015,12,06,13,41,29.00
2015,12,06,13,42,27.40
2015,12,06,13,43,32.20
2015,12,06,13,44,37.00
2015,12,06,13,45,35.40
2015,12,06,13,46,33.80
2015,12,06,13,47,33.80
2015,12,06,13,48,32.20
2015,12,06,13,49,35.40
2015,12,06,13,50,41.80
2015,12,06,13,51,38.60
2015,12,06,13,52,37.00
2015,12,06,13,53,40.20
2015,12,06,13,54,43.50
2015,12,06,13,55,45.10
2015,12,06,13,56,41.80
2015,12,06,13,57,33.80
2015,12,06,13,58,41.80
2015,12,06,13,59,29.00
2015,12,06,14,00,24.20
2015,12,06,14,01,30.60
2015,12,06,14,02,35.40
2015,12,06,14,03,35.40
2015,12,06,14,04,30.60
2015,12,06,14,05,33.80
2015,12,06,14,06,19.30
2015,12,06,14,07,33.80
2015,12,06,14,08,35.40
2015,12,06,14,09,33.80
2015,12,06,14,10,35.40
2015,12,06,14,11,35.40
2015,12,06,14,12,35.40
2015,12,06,14,13,30.60
2015,12,06,14,14,25.70
2015,12,06,14,15,19.30
2015,12,06,14,16,16.10
2015,12,06,14,17,19.30
2015,12,06,14,18,27.40
2015,12,06,14,19,35.40
2015,12,06,14,20,32.20
2015,12,06,14,21,38.60
2015,12,06,14,22,27.40
2015,12,06,14,23,41.80
2015,12,06,14,24,61.20
2015,12,06,14,25,32.20
2015,12,06,14,26,17.70
2015,12,06,14,27,35.40
2015,12,06,14,28,33.80
2015,12,06,14,29,45.10
2015,12,06,14,30,46.70
2015,12,06,14,31,45.10
2015,12,06,14,32,40.20
2015,12,06,14,33,43.50
2015,12,06,14,34,45.10
2015,12,06,14,35,49.90
2015,12,06,14,36,43.50
2015,12,06,14,37,40.20
2015,12,06,14,38,32.20
2015,12,06,14,39,24.20
2015,12,06,14,40,24.20
2015,12,06,14,41,61.20
2015,12,06,14,42,40.20
2015,12,06,14,43,38.60
2015,12,06,14,44,37.00
2015,12,06,14,45,33.80
2015,12,06,14,46,57.90
2015,12,06,14,47,40.20
2015,12,06,14,48,45.10
2015,12,06,14,49,35.40
2015,12,06,14,50,27.40
2015,12,06,14,51,53.10
2015,12,06,14,52,57.90
2015,12,06,14,53,46.70
2015,12,06,14,54,40.20
2015,12,06,14,55,54.70
2015,12,06,14,56,53.10
2015,12,06,14,57,56.30
2015,12,06,14,58,38.60
2015,12,06,14,59,46.70
2015,12,06,15,00,48.30
2015,12,06,15,01,35.40
2015,12,06,15,02,33.80
2015,12,06,15,03,46.70
2015,12,06,15,04,38.60
2015,12,06,15,05,45.10
2015,12,06,15,06,40.20
2015,12,06,15,07,46.70
2015,12,06,15,08,43.50
2015,12,06,15,09,38.60
2015,12,06,15,10,49.90
2015,12,06,15,11,49.90
2015,12,06,15,12,51.50
2015,12,06,15,13,41.80
2015,12,06,15,14,33.80
2015,12,06,15,15,48.30
2015,12,06,15,16,30.60
2015,12,06,15,17,33.80
2015,12,06,15,18,35.40
2015,12,06,15,19,56.30
2015,12,06,15,20,54.70
2015,12,06,15,21,37.00
2015,12,06,15,22,24.20
2015,12,06,15,23,43.50
2015,12,06,15,24,32.20
2015,12,06,15,25,53.10
2015,12,06,15,26,41.80
2015,12,06,15,27,46.70
2015,12,06,15,28,45.10
2015,12,06,15,29,16.10
2015,12,06,15,30,27.40
2015,12,06,15,31,30.60
2015,12,06,15,32,32.20
2015,12,06,15,33,33.80
2015,12,06,15,34,43.50
2015,12,06,15,35,53.10
2015,12,06,15,36,46.70
2015,12,06,15,37,33.80
2015,12,06,15,38,38.60
2015,12,06,15,39,38.60
2015,12,06,15,40,45.10
2015,12,06,15,41,27.40
2015,12,06,15,42,35.40
2015,12,06,15,43,48.30
2015,12,06,15,44,48.30
2015,12,06,15,45,40.20
2015,12,06,15,46,37.00
2015,12,06,15,47,46.70
2015,12,06,15,48,41.80
2015,12,06,15,49,51.50
2015,12,06,15,50,46.70
2015,12,06,15,51,37.00
2015,12,06,15,52,38.60
2015,12,06,15,53,37.00
2015,12,06,15,54,32.20
2015,12,06,15,55,48.30
2015,12,06,15,56,41.80
2015,12,06,15,57,37.00
2015,12,06,15,58,35.40
2015,12,06,15,59,41.80
2015,12,06,16,00,51.50
2015,12,06,16,01,43.50
2015,12,06,16,02,32.20
2015,12,06,16,03,29.00
2015,12,06,16,04,38.60
2015,12,06,16,05,37.00
2015,12,06,16,06,37.00
2015,12,06,16,07,37.00
2015,12,06,16,08,41.80
2015,12,06,16,09,35.40
2015,12,06,16,10,54.70
2015,12,06,16,11,54.70
2015,12,06,16,12,37.00
2015,12,06,16,13,41.80
2015,12,06,16,14,45.10
2015,12,06,16,15,43.50
2015,12,06,16,16,37.00
2015,12,06,16,17,38.60
2015,12,06,16,18,46.70
2015,12,06,16,19,40.20
2015,12,06,16,20,37.00
2015,12,06,16,21,51.50
2015,12,06,16,22,48.30
2015,12,06,16,23,59.50
2015,12,06,16,24,37.00
2015,12,06,16,25,32.20
2015,12,06,16,26,40.20
2015,12,06,16,27,40.20
2015,12,06,16,28,40.20
2015,12,06,16,29,43.50
2015,12,06,16,30,57.90
2015,12,06,16,31,40.20
2015,12,06,16,32,43.50
2015,12,06,16,33,37.00
2015,12,06,16,34,45.10
2015,12,06,16,35,33.80
2015,12,06,16,36,27.40
2015,12,06,16,37,57.90
2015,12,06,16,38,40.20
2015,12,06,16,39,54.70
2015,12,06,16,40,66.00
2015,12,06,16,41,64.40
2015,12,06,16,42,45.10
2015,12,06,16,43,40.20
2015,12,06,16,44,35.40
2015,12,06,16,45,37.00
2015,12,06,16,46,41.80
2015,12,06,16,47,40.20
2015,12,06,16,48,40.20
2015,12,06,16,49,38.60
2015,12,06,16,50,49.90
2015,12,06,16,51,37.00
2015,12,06,16,52,38.60
2015,12,06,16,53,41.80
2015,12,06,16,54,38.60
2015,12,06,16,55,41.80
2015,12,06,16,56,22.50
2015,12,06,16,57,32.20
2015,12,06,16,58,51.50
2015,12,06,16,59,56.30
2015,12,06,17,00,33.80
2015,12,06,17,01,51.50
2015,12,06,17,02,45.10
2015,12,06,17,03,35.40
2015,12,06,17,04,53.10
2015,12,06,17,05,53.10
2015,12,06,17,06,49.90
2015,12,06,17,07,33.80
2015,12,06,17,08,32.20
2015,12,06,17,09,32.20
2015,12,06,17,10,33.80
2015,12,06,17,11,49.90
2015,12,06,17,12,33.80
2015,12,06,17,13,48.30
2015,12,06,17,14,54.70
2015,12,06,17,15,51.50
2015,12,06,17,16,43.50
2015,12,06,17,17,38.60
2015,12,06,17,18,25.70
2015,12,06,17,19,46.70
2015,12,06,17,20,53.10